Location: Sabalos
(43.2860°N, 0.1414°E)
Time: 20:51:20
(UTC+00:00)

Cosmos 158 Rocket - Pass Details

Date: 05 July 2020
Orbit: 698 x 794 km, 74.0° (Epoch: 14 August)

Event Time Altitude Azimuth Distance (km) Brightness Sun altitude
Exits shadow 22:52:54 47° 210° (SSW) 926 4.1 -22.0°
Maximum altitude 22:54:18 81° 290° (WNW) 712 3.8 -22.1°
Drops below altitude 10° 22:59:13 10° 19° (NNE) 2,179 7.1 -22.4°
Sets 23:01:34 0° 20° (NNE) 3,110 8.0 -22.5°
